Theta_e
295 295 294 293 293 294 293 294 290 293 294 302 306 310 311 313 334 331 326 326 330 330 332 334 334 333 332 330 330 329 326 324 323 323 322 321 321 320 320 319 320 321 321 321
292 295 296 292 291 294 294 294 295 295 295 301 307 311 314 313 330 327 324 326 329 330 331 332 327 330 329 327 325 324 322 320 320 320 320 320 320 320 319 319 320 321 320 320
287 293 294 289 295 295 295 297 296 291 296 301 303 310 320 326 326 325 327 329 328 330 331 328 327 327 325 324 323 321 320 319 319 319 318 319 319 318 318 320 321 320 320 319
287 290 283 296 302 300 298 298 299 299 300 302 308 314 320 325 326 329 324 327 330 329 330 327 326 326 324 322 320 319 318 318 318 318 318 318 317 318 319 320 319 318 317 318
285 287 292 294 299 300 299 297 302 301 303 306 308 312 314 325 326 325 325 330 330 330 327 325 325 323 321 320 318 317 316 316 316 317 317 317 316 318 319 319 318 317 317 316
286 284 284 286 299 306 306 295 306 306 306 306 309 303 310 318 321 322 325 327 326 323 324 324 323 323 320 318 317 316 315 316 317 316 317 317 318 318 319 318 317 317 316 316
291 289 291 297 301 307 291 297 307 312 315 311 310 316 315 317 318 318 321 323 324 323 323 324 323 321 318 317 315 316 316 316 315 317 317 318 319 319 317 318 316 315 315 315
289 289 286 300 298 294 298 302 307 311 317 314 314 314 313 314 316 315 316 319 321 320 320 321 321 320 316 315 316 315 315 314 316 317 316 317 318 317 317 316 314 315 315 315
289 290 298 299 299 301 303 303 310 312 318 316 314 311 309 310 312 312 315 317 320 320 318 319 318 319 315 314 315 314 314 314 315 316 316 316 315 315 313 315 314 314 313 312
292 297 296 298 300 301 303 309 314 313 317 318 315 313 309 308 309 312 315 318 319 318 316 316 316 315 314 314 315 314 314 314 314 314 314 315 315 316 315 311 313 312 311 311
294 297 296 301 299 301 304 310 310 311 317 318 316 313 311 308 309 311 315 319 319 317 316 315 315 314 315 315 315 314 313 313 313 312 314 312 306 304 309 301 299 309 306 309
289 295 295 296 300 303 301 306 308 309 310 312 316 313 310 308 309 311 315 318 316 316 315 314 313 313 314 315 315 314 312 312 311 312 312 310 307 303 292 293 292 290 290 297
295 299 299 301 301 300 305 305 307 309 308 308 311 312 310 308 309 310 314 315 314 313 313 313 312 312 314 315 315 313 313 312 312 310 311 310 309 307 302 296 291 289 289 289
301 299 298 297 296 301 305 306 307 305 307 307 308 309 310 309 310 311 313 314 313 312 311 312 312 311 314 314 313 313 313 303 312 312 312 311 311 310 308 305 303 299 289 291
301 299 297 297 297 299 304 305 304 303 303 303 307 307 308 308 309 311 313 314 313 312 311 311 310 311 313 314 313 312 311 311 313 312 312 310 311 311 308 305 305 301 296 292
301 297 297 295 295 295 298 300 302 302 303 303 303 304 307 307 308 310 312 312 311 310 310 309 310 311 313 313 313 312 311 301 307 312 310 311 310 310 306 305 304 303 303 303
296 292 292 293 293 293 294 296 299 301 302 301 301 303 303 302 303 303 303 304 304 305 307 306 306 309 311 313 312 311 310 309 293 311 310 310 310 309 307 305 304 303 303 297
297 295 293 293 292 292 292 294 296 298 299 299 299 298 298 299 296 297 299 300 300 300 301 302 303 305 307 308 310 311 310 309 309 310 310 309 309 309 307 305 304 302 302 296
296 294 295 293 293 292 292 292 293 295 296 298 297 296 296 295 294 294 295 296 296 296 298 301 296 302 308 302 305 309 309 309 309 309 309 301 307 308 306 305 304 302 302 299
295 294 294 293 293 292 291 292 292 292 293 293 292 290 288 288 291 293 293 291 293 295 298 298 301 306 307 305 299 309 309 309 308 308 307 307 307 306 306 299 303 302 302 302
295 294 293 291 291 291 291 291 290 289 290 291 288 286 286 288 287 288 289 288 290 293 294 295 302 304 305 300 303 309 309 309 308 307 305 306 306 304 305 304 303 302 301 302
298 298 298 296 294 291 290 290 290 289 289 288 287 287 287 286 286 286 286 286 288 288 294 298 297 288 295 287 304 308 307 308 306 305 305 305 303 303 302 302 302 301 301 302
300 300 299 298 297 296 295 292 290 289 287 286 285 285 285 285 285 286 285 286 289 287 292 291 286 285 285 298 303 304 303 304 304 303 303 303 302 302 301 301 302 300 300 301
301 300 299 299 299 297 293 291 291 290 289 287 285 285 285 285 285 285 286 285 285 287 289 288 287 285 284 298 299 300 302 303 303 303 302 294 301 301 302 301 299 300 301 298
301 300 300 299 298 295 293 291 290 289 288 286 286 287 286 288 287 286 287 288 285 287 291 285 285 285 290 295 297 300 302 302 303 302 301 301 300 300 299 299 300 300 299 298
302 301 300 300 298 297 295 293 289 289 290 289 289 290 289 290 290 291 291 289 290 287 291 292 291 291 293 294 296 299 301 300 301 301 299 300 299 299 299 298 299 298 298 296
302 298 300 299 299 298 297 295 293 291 292 292 290 291 291 290 290 290 288 290 290 290 291 292 292 291 293 294 296 297 298 299 296 301 301 300 300 299 299 299 299 298 296 294
Wind_Speed
20 24 14 18 25 32 28 25 24 24 19 17 23 25 11 27 29 30 23 20 22 23 20 22 22 21 20 19 18 17 17 15 14 13 12 11 10 10 9 8 6 7 7 8
22 21 21 14 20 30 31 26 27 29 12 5 28 33 20 17 31 27 25 26 24 23 24 23 18 20 17 19 17 16 16 15 14 13 12 11 10 10 9 8 6 7 7 8
7 6 8 11 20 28 27 31 28 25 18 13 30 22 8 27 27 27 27 26 27 26 24 21 20 18 18 19 17 16 16 14 13 12 12 11 10 10 9 7 6 7 7 8
4 5 7 5 3 22 29 27 26 23 16 22 25 7 12 15 24 31 26 26 25 23 22 18 21 19 19 19 16 16 15 14 13 12 12 11 11 10 8 8 7 7 7 7
3 5 7 5 9 8 12 18 21 22 23 21 13 5 9 16 9 17 24 23 22 18 20 19 22 19 20 19 16 15 14 14 12 12 12 11 11 10 8 8 7 7 7 5
3 3 3 3 14 21 12 10 8 11 16 18 8 5 7 13 15 16 19 19 21 19 17 17 21 19 19 19 17 16 15 13 12 12 11 11 10 9 8 7 6 7 7 6
8 1 3 15 19 17 8 2 19 14 18 15 9 5 12 16 17 8 11 20 21 24 17 17 19 20 19 18 17 16 15 14 12 11 11 10 9 9 7 6 7 6 6 6
6 6 5 22 6 4 11 17 20 13 14 8 16 19 18 18 23 24 11 19 18 21 19 19 17 17 19 18 17 16 15 14 13 12 9 9 10 8 6 7 6 4 5 6
3 4 6 10 9 13 13 16 10 10 7 15 19 19 19 17 20 24 21 17 17 20 21 18 17 16 19 18 17 16 16 15 13 12 10 9 9 8 6 5 6 7 6 4
9 6 15 10 9 15 19 11 5 2 8 12 17 19 20 18 14 17 18 18 19 23 22 21 19 18 17 17 17 17 16 14 12 11 10 9 7 6 6 6 1 3 3 3
6 10 18 6 17 20 18 11 7 5 3 10 15 18 19 16 17 14 15 20 21 21 20 21 20 20 18 18 17 16 15 13 12 10 9 11 12 11 10 10 8 5 8 5
4 13 10 14 14 15 15 12 10 8 5 5 10 19 20 15 15 13 14 20 19 21 21 21 20 19 18 17 16 15 14 11 9 9 8 9 8 9 16 12 12 13 13 11
6 14 16 12 12 14 3 8 11 9 8 8 7 12 19 15 13 13 14 20 20 21 21 20 19 18 17 16 15 14 12 12 8 8 8 8 9 9 9 8 12 13 13 13
7 13 8 13 12 17 13 11 10 12 8 6 8 10 13 14 13 12 16 19 20 20 20 19 18 17 16 15 14 14 13 10 9 8 7 7 6 8 7 7 7 7 9 8
10 8 7 9 12 14 13 8 10 9 8 10 6 8 10 11 10 12 17 18 18 19 18 17 17 16 14 14 13 13 12 9 8 8 6 6 6 9 7 6 5 7 7 5
9 10 10 11 13 14 13 15 9 9 9 8 9 9 7 11 13 14 12 16 16 14 16 16 15 13 13 13 13 11 8 7 7 8 7 6 6 8 7 7 6 6 5 5
9 9 11 12 12 12 13 10 10 8 7 9 10 10 11 13 14 14 14 14 16 17 15 14 11 8 8 10 11 8 8 7 3 7 7 6 5 6 7 7 6 5 4 7
7 7 7 8 9 9 10 11 10 10 8 8 11 11 12 10 10 12 14 14 14 13 11 8 6 6 6 6 6 8 8 8 7 6 5 5 5 6 6 7 6 7 7 5
9 8 10 10 9 8 8 9 9 9 9 7 7 7 10 10 9 9 12 13 13 11 7 7 7 2 7 3 2 7 8 9 8 7 5 4 5 6 7 6 7 7 8 7
8 7 9 9 10 10 9 9 9 10 8 7 9 11 10 8 6 11 13 11 9 7 6 5 3 5 5 5 5 5 8 8 7 7 6 6 6 4 6 7 8 7 7 5
8 8 8 8 9 9 10 10 10 10 10 9 9 8 9 11 8 8 11 9 7 7 6 3 2 3 5 1 6 4 6 7 7 6 6 5 6 6 5 7 7 7 6 6
7 8 9 10 10 9 9 10 11 10 10 12 12 12 11 10 10 10 10 7 4 6 2 3 7 7 6 6 4 1 3 3 4 4 4 4 6 7 7 7 7 6 6 5
7 7 8 9 10 11 11 10 9 9 10 9 10 10 9 6 4 5 6 3 3 5 5 5 6 6 7 4 3 2 1 4 4 5 6 4 5 5 5 7 7 6 5 6
7 8 8 7 7 8 9 9 9 9 9 8 8 7 7 5 5 4 5 5 6 5 5 4 4 5 5 3 3 3 5 5 4 3 5 4 6 7 6 7 7 7 6 4
7 7 6 6 7 7 8 7 7 9 8 7 6 6 6 4 3 3 3 4 4 0 3 4 0 2 4 3 3 5 4 4 3 3 5 6 6 8 8 8 7 7 6 6
7 5 6 7 7 6 6 6 5 4 4 4 4 4 4 5 5 4 4 3 5 3 2 2 3 4 4 3 5 5 4 4 3 3 6 6 7 8 7 7 8 7 6 6
7 5 7 6 6 5 5 6 6 5 4 4 4 3 4 4 4 2 2 5 3 2 2 2 2 2 3 3 2 1 2 3 4 4 5 6 3 6 6 7 7 6 6 6
Wind_Direction
269 267 223 225 222 238 227 228 229 234 243 299 306 314 213 206 148 145 145 147 152 148 143 142 134 130 129 127 126 127 124 123 120 121 121 123 119 111 108 103 97 100 102 95
277 275 272 216 211 248 226 225 231 236 227 310 283 288 287 279 146 146 152 154 152 148 148 132 127 129 131 125 126 128 126 125 129 128 127 120 119 115 109 103 102 102 101 95
254 317 295 246 224 216 206 216 228 229 233 214 267 265 251 148 147 151 153 156 158 151 147 138 136 122 137 129 130 129 126 129 129 132 129 128 125 118 113 108 99 95 92 89
260 260 230 27 320 195 221 209 216 224 212 213 245 293 249 161 157 157 145 165 155 157 136 130 120 141 134 129 132 129 132 131 136 138 134 132 128 119 124 120 109 97 95 98
256 229 337 13 341 300 235 212 211 222 230 243 251 316 313 166 147 147 152 157 150 136 128 130 126 137 133 130 134 134 132 137 136 136 135 132 127 133 123 116 115 115 109 98
241 252 209 276 308 277 277 248 237 262 260 241 232 254 187 108 117 145 154 153 125 119 115 126 137 140 136 135 139 136 136 131 134 136 136 129 129 133 115 127 124 114 106 95
304 308 78 351 345 120 168 50 325 294 274 220 220 186 114 110 104 98 119 129 122 120 140 152 140 144 138 139 132 127 127 125 127 128 122 125 127 123 137 109 96 105 112 109
326 353 10 349 11 8 314 300 289 283 262 156 113 114 126 127 124 112 102 113 132 130 145 142 145 141 134 127 124 128 127 126 124 129 131 133 128 125 127 125 124 144 155 170
296 301 2 323 336 311 306 291 288 247 143 132 126 128 129 124 131 132 145 147 147 135 140 149 145 134 126 129 130 128 123 126 129 126 123 132 135 137 132 178 149 177 186 156
330 29 331 320 341 336 345 338 22 286 127 149 131 134 129 132 137 135 151 159 147 146 146 141 132 127 128 131 130 131 129 129 129 131 130 133 142 157 117 43 7 139 116 84
278 349 331 89 350 341 330 360 22 20 49 139 136 138 139 146 144 154 163 154 150 145 142 130 130 132 133 133 133 130 133 133 129 136 133 91 63 18 87 52 29 9 26 44
298 326 311 303 333 343 322 4 5 357 85 50 132 135 141 147 150 157 164 146 141 137 131 131 132 130 130 133 137 139 136 137 146 131 138 119 119 87 54 58 52 56 46 35
298 323 307 330 325 343 337 10 16 40 60 79 88 130 137 139 144 158 153 140 138 136 133 131 130 131 134 139 140 146 136 131 136 140 133 142 142 136 120 83 70 62 59 58
325 339 357 351 330 339 5 39 48 47 54 75 106 126 138 133 155 155 142 136 136 136 131 132 132 131 135 138 141 134 132 137 154 137 136 146 145 128 129 139 140 121 59 64
338 9 358 342 345 9 10 37 62 80 70 52 52 90 120 125 131 130 132 132 131 125 126 128 127 129 140 136 137 132 145 150 137 140 140 122 140 118 126 135 135 122 139 177
338 22 4 18 6 10 27 16 46 77 82 91 71 62 65 85 89 95 107 125 126 127 123 122 125 129 136 138 136 140 118 86 138 147 136 161 153 134 131 145 150 157 163 142
9 7 358 12 15 10 16 15 25 81 86 99 89 94 89 90 97 100 93 89 89 91 94 94 96 82 118 140 141 131 136 148 38 143 172 155 158 149 141 145 156 151 132 60
53 44 27 16 14 18 19 20 22 40 84 89 109 115 111 114 117 115 106 98 88 84 88 98 88 102 122 152 153 144 144 152 171 158 147 149 165 132 147 145 154 148 123 128
49 39 43 40 29 38 38 27 30 32 39 84 101 110 113 115 126 112 107 102 99 93 72 73 37 318 167 73 209 162 152 161 171 150 152 113 169 150 141 157 169 149 150 167
80 62 56 58 49 45 46 41 45 51 50 84 97 95 87 85 110 108 97 87 79 79 94 96 246 165 153 186 304 163 151 166 164 152 150 186 171 156 152 156 147 160 165 139
97 97 83 66 57 52 50 51 58 58 60 67 80 83 94 87 67 88 100 98 60 68 70 347 11 127 113 179 279 171 157 172 168 145 145 200 137 157 181 162 163 155 145 164
133 117 108 103 90 73 56 51 57 61 69 74 72 73 73 70 77 69 55 82 79 56 11 81 58 34 22 328 226 336 148 167 131 140 148 164 168 178 175 172 154 149 167 156
111 95 84 76 82 86 84 75 65 63 66 61 69 75 68 60 44 85 99 61 73 57 61 56 55 33 3 307 19 352 195 228 151 164 173 175 164 178 179 168 161 151 165 166
107 90 91 96 99 90 83 78 80 75 76 79 79 72 92 86 63 48 77 84 83 51 62 70 58 27 343 312 334 266 230 213 185 172 152 167 178 168 170 154 166 183 136 148
104 104 109 106 105 94 104 108 102 99 94 85 87 89 84 61 93 126 114 105 106 305 151 132 252 317 278 299 240 242 219 195 165 146 171 173 172 164 170 180 154 152 162 133
147 126 89 43 80 105 120 114 110 116 117 111 112 115 117 114 121 134 141 140 155 195 241 166 228 207 230 249 266 260 198 132 156 158 171 169 172 163 165 158 147 153 137 137
116 113 126 123 119 129 116 123 144 139 146 139 124 135 130 136 136 157 147 146 153 176 227 164 182 192 230 214 234 65 138 149 128 129 141 164 181 161 155 148 150 138 142 146